Truth Or Consequences, NM

12:23 PM MDT on September 21, 2019 (GMT -0600)
Truth Or Consequences Municipal

Weather History for KTCS - August, 2019

Change the Weather History Date:

Tuesday, August 20, 2019

  Actual Average Record
Temperature  
Mean Temperature 85 °F -  
Max Temperature 100 °F 89 °F 99 °F (2007)
Min Temperature 70 °F 64 °F 59 °F (2004)
Cooling Degree Days 20    
Month to date cooling degree days 366  
Year to date cooling degree days 1586  
Since 1 June cooling degree days 1388  
Growing Degree Days 35 (Base 50)    
Moisture  
Dew Point 47 °F    
Average Humidity 27    
Maximum Humidity 41    
Minimum Humidity 14    
Precipitation  
Precipitation 0.00 in - 0.47 in (2006)
Month to date precipitation 1.17  
Year to date precipitation 3.35  
Sea Level Pressure  
Sea Level Pressure 29.87 in    
Wind  
Wind Speed 7 mph ()    
Max Wind Speed 22 mph    
Max Gust Speed 29 mph    
Visibility 10.0 miles    
Events Thunderstorm    
T = Trace of Precipitation, MM = Missing Value Source: Averaged Metar Reports

Daily Weather History Graph

Daily Weather History Graph

Search for Another Location

Airport or City:

Astronomy

Aug. 20, 2019 Rise Set
Actual Time 6:35 AM MDT 7:49 PM MDT
Civil Twilight 6:09 AM MDT 8:15 PM MDT
Nautical Twilight 5:38 AM MDT 8:45 PM MDT
Astronomical Twilight 5:06 AM MDT 9:17 PM MDT
Moon 10:54 PM MDT (8/20) 11:02 AM MDT (8/20)
Length of Visible Light 14h 05m
Length of Day
13h 14m
Waning Gibbous, 77% of the Moon is Illuminated
Aug 20
Waning Gibbous
Aug 23
Last Quarter
Aug 30
New
Sep 5
First Quarter
Sep 13
Full

Hourly Weather History & Observations

Time (MDT) Temp. Dew Point Humidity Pressure Visibility Wind Dir Wind Speed Gust Speed Precip Events Conditions
12:53 AM 79.0 °F 45.0 °F 30% 29.81 in 10.0 mi NW 5.8 mph - N/A   Clear
1:53 AM 78.1 °F 45.0 °F 31% 29.81 in 10.0 mi Calm Calm - N/A   Clear
2:53 AM 75.0 °F 45.0 °F 34% 29.82 in 10.0 mi West 8.1 mph - N/A   Unknown
3:53 AM 75.0 °F 44.1 °F 33% 29.81 in 10.0 mi WNW 5.8 mph - N/A   Clear
4:53 AM 75.0 °F 45.0 °F 34% 29.82 in 10.0 mi WNW 6.9 mph - N/A   Clear
5:53 AM 71.1 °F 44.1 °F 38% 29.84 in 10.0 mi WNW 4.6 mph - N/A   Clear
6:53 AM 70.0 °F 45.0 °F 41% 29.87 in 10.0 mi WNW 6.9 mph - N/A   Clear
7:53 AM 75.9 °F 46.0 °F 35% 29.88 in 10.0 mi WNW 8.1 mph - N/A   Clear
8:53 AM 84.0 °F 46.9 °F 27% 29.89 in 10.0 mi Calm Calm - N/A   Clear
9:53 AM 84.0 °F 48.0 °F 28% 29.89 in 10.0 mi East 3.5 mph - N/A   Clear
10:53 AM 90.0 °F 48.9 °F 24% 29.87 in 10.0 mi North - - N/A   Clear
11:53 AM 91.0 °F 48.9 °F 23% 29.86 in 10.0 mi South 8.1 mph - N/A   Mostly Cloudy
12:53 PM 93.9 °F 48.9 °F 21% 29.84 in 10.0 mi South 8.1 mph - N/A   Partly Cloudy
1:53 PM 96.1 °F 46.9 °F 19% 29.82 in 10.0 mi SSE 5.8 mph - N/A   Clear
2:53 PM 98.1 °F 45.0 °F 16% 29.80 in 10.0 mi SSE 15.0 mph 21.9 mph N/A   Clear
3:53 PM 98.1 °F 44.1 °F 16% 29.78 in 10.0 mi WSW 15.0 mph 23.0 mph N/A Thunderstorm Clear
4:11 PM 98.1 °F 43.0 °F 15% 30.09 in 10.0 mi WSW 12.7 mph 20.7 mph N/A   Clear
4:43 PM 96.1 °F 42.1 °F 15% 30.08 in 10.0 mi SW 11.5 mph 19.6 mph N/A Thunderstorm Partly Cloudy
4:53 PM 98.1 °F 41.0 °F 14% 29.79 in 10.0 mi South 16.1 mph 28.8 mph N/A Thunderstorm Clear
5:53 PM 91.0 °F 48.9 °F 23% 29.82 in 10.0 mi SSE 15.0 mph - N/A   Clear
6:18 PM 90.0 °F 48.0 °F 24% 30.11 in 10.0 mi South 18.4 mph - N/A   Clear
6:53 PM 90.0 °F 48.0 °F 24% 29.84 in 10.0 mi SSW 12.7 mph - N/A   Clear
7:53 PM 86.0 °F 50.0 °F 29% 29.86 in 10.0 mi East 10.4 mph - N/A   Clear
8:53 PM 82.9 °F 51.1 °F 33% 29.87 in 10.0 mi ENE 8.1 mph - N/A   Clear
9:53 PM 82.0 °F 52.0 °F 35% 29.88 in 10.0 mi North 6.9 mph - N/A   Scattered Clouds
10:53 PM 81.0 °F 51.1 °F 35% 29.88 in 10.0 mi NNE 9.2 mph - N/A   Clear
11:53 PM 80.1 °F 51.1 °F 36% 29.86 in 10.0 mi North 5.8 mph - N/A   Clear